Weather in Vladislavovka

Russia / Republic of Crimea     45°28′08″N   34°35′43″E
temp.,
°C
wind,
m/s
gust,
m/s
humid.,
%
clouds,
%
prec.,
mm/h
press.,
hPa
HPBL,
m
3 march, wed
wed300:00+3wsw8157938 0.0 1023527
03:00+5w8148066 0.0 1023744
06:00+3nw597497 0.0 1022526
09:00+4nnw697589 0.0 1025863
12:00+6nnw68626 0.0 1026985
15:00+8nnw68464 0.0 10261385
18:00+7nnw36500 0.0 1027297
21:00+4w23620 0.0 102834
4 march, thu
thu400:00+3wsw23770 0.0 102833
03:00+1sw34830 0.0 102778
06:00+1sw34840 0.0 102681
09:00+4sw46710 0.0 1025261
12:00+9sw57490 0.0 10241008
15:00+10wsw68450 0.0 10221115
18:00+7wsw610580 0.0 1020678
21:00+4sw612700 0.0 1019471
5 march, fri
fri500:00+4sw613690 0.0 1018419
03:00+3sw513700 0.0 1017388
06:00+3sw513720 0.0 1016333
09:00+6ssw49570 0.0 1016357
12:00+13sw710433 0.0 10141044
15:00+14sw913391 0.0 10131247
18:00+11wsw7135428 0.0 1012669
21:00+8sw8147561 0.0 1013438
6 march, sat
sat600:00+7sw7148567 0.0 1013373
03:00+6wsw5109154 0.0 1013236
06:00+5nw479740 0.0 1014210
09:00+4n468469 0.0 1016415
12:00+3n5793100 0.3 1018400
15:00+5n5660100 0.8 1018948
18:00+4n5745100 0.0 10201380
21:00+3nnw5949100 0.0 1023604
7 march, sun
sun700:000nw335336 0.0 102547
03:00−1nw377118 0.0 1026208
06:00−2wnw23600 0.0 102750
09:00+1wsw34410 0.0 1027277
12:00+5w57320 0.0 10271887
15:00+6w793833 0.0 10251933
18:00+4w58456 0.0 10231160
21:00+1sw48613 0.0 1022184